Wind_Speed
3 1 9 9 7 3 2 4 7 4 6 1 7 7 9 22 15 21 28 32 28 23 19 14 10 7 3 1 2 4 7 9 10 11 13 14 16 17 18 19 19 20 21 24
0 9 12 6 6 6 8 9 8 5 5 6 7 9 6 11 21 31 35 32 32 27 23 18 13 8 4 1 2 5 8 11 14 16 18 18 17 17 17 17 18 19 21 24
12 9 2 6 6 8 6 9 5 8 4 3 1 5 6 7 6 19 28 32 32 32 28 22 16 9 4 1 3 7 10 13 16 17 17 15 14 14 14 16 17 18 20 22
7 16 14 14 10 7 13 6 8 6 4 5 1 8 4 2 4 8 22 28 32 31 25 21 16 10 4 2 6 9 12 14 15 16 16 16 15 15 16 17 17 16 17 19
8 3 4 7 10 9 14 10 9 5 4 3 2 3 1 3 1 6 14 22 31 31 27 21 14 7 4 4 6 9 12 14 14 14 14 15 15 15 15 15 15 16 17 19
10 13 3 6 2 1 1 4 5 5 3 4 6 6 4 5 4 4 10 19 27 28 24 19 13 10 7 6 7 10 13 14 13 13 13 14 13 14 14 15 15 17 18 18
9 22 13 10 9 2 3 4 1 2 0 7 6 4 7 6 6 11 18 25 30 29 26 22 17 14 12 9 9 11 12 11 10 10 11 12 12 13 14 15 17 17 18 19
4 7 9 8 21 13 9 10 5 6 4 4 2 5 4 3 1 15 17 26 29 28 25 21 19 16 16 12 10 10 9 8 8 8 9 9 10 12 14 15 16 17 18 18
4 6 4 4 6 14 7 7 7 5 3 2 3 2 2 5 5 14 21 23 28 31 27 23 21 21 16 11 9 7 6 6 5 6 8 9 10 11 13 14 15 15 16 17
5 9 3 2 2 3 7 7 4 2 4 5 4 3 4 5 8 7 10 22 29 27 27 25 23 20 15 11 8 7 6 5 5 6 7 8 9 11 12 12 13 15 15 16
6 4 5 1 3 7 2 3 3 4 4 4 2 5 6 9 9 15 17 31 31 30 29 28 24 20 16 13 9 7 5 4 3 3 5 7 8 10 11 11 12 14 16 16
7 5 7 15 4 4 2 5 5 4 4 2 4 7 4 8 13 18 22 30 30 29 28 27 25 21 18 13 9 7 5 4 2 1 3 6 8 9 11 11 13 14 16 16
2 2 1 5 3 3 2 3 4 4 4 9 5 6 3 5 7 13 12 14 18 29 28 27 26 23 18 13 9 8 7 5 3 1 3 5 7 8 10 11 12 14 15 16
2 1 4 9 4 4 3 4 5 5 3 7 7 6 5 6 7 9 13 17 16 20 24 25 26 23 18 14 11 11 9 7 5 2 2 3 5 6 9 12 12 13 14 15
5 5 10 9 4 4 4 5 6 5 6 9 8 7 7 9 8 12 13 12 10 11 18 24 27 25 20 16 14 13 11 9 6 5 3 3 4 5 7 10 12 12 13 15
4 4 8 9 10 4 5 7 7 5 4 6 7 9 8 5 10 13 15 12 11 12 12 17 22 23 22 18 17 16 13 9 8 7 5 4 5 5 5 8 9 10 12 13
4 5 4 5 5 2 6 7 9 5 6 7 9 9 5 4 8 18 18 16 13 12 14 15 17 18 20 20 20 16 14 9 9 7 7 6 5 5 5 5 6 7 9 12
4 5 3 3 5 4 6 6 8 13 13 10 4 5 12 16 20 17 15 14 13 14 15 16 15 14 17 21 19 16 13 9 9 9 8 7 6 5 4 3 4 4 7 10
14 7 3 4 9 3 3 4 6 7 7 6 7 6 10 16 12 7 14 13 10 11 13 13 12 13 18 22 20 18 14 11 10 10 10 8 7 5 4 3 1 3 5 9
13 14 7 2 4 7 5 11 12 4 10 5 8 10 11 15 4 4 13 12 11 11 11 13 15 16 19 20 18 16 14 13 10 10 10 8 7 7 5 3 0 2 4 7
6 6 14 6 4 6 5 5 4 4 5 7 20 22 21 6 8 6 6 11 11 10 12 15 16 17 17 18 18 16 15 12 10 11 10 9 7 6 4 2 2 3 5 7
5 6 3 3 4 9 7 1 6 6 1 16 22 26 25 19 10 8 8 10 12 14 17 17 19 19 18 17 18 16 14 12 12 12 11 10 7 5 2 2 3 3 4 6
3 3 4 7 6 6 12 8 5 5 7 14 23 21 22 17 13 10 9 11 13 16 16 16 17 19 19 18 16 14 13 14 14 13 11 10 8 6 3 2 2 2 2 2
3 2 3 2 4 6 15 13 12 12 12 13 12 11 16 15 10 11 11 14 17 20 15 14 18 20 21 20 16 12 12 12 13 12 11 10 9 7 5 4 2 1 1 1
4 2 2 4 3 3 4 12 15 15 15 16 18 20 18 17 15 14 14 18 21 21 20 17 19 20 21 21 18 17 14 12 13 12 11 11 9 8 6 5 4 3 2 2
3 3 3 4 6 4 4 4 4 14 12 13 11 13 18 19 17 15 18 19 23 25 23 22 21 19 20 20 18 20 19 15 13 13 12 11 10 10 9 7 6 5 4 3
Wind_Direction
219 175 227 211 213 228 268 230 237 242 261 251 257 250 228 191 184 167 171 178 178 175 168 169 171 164 143 127 313 324 335 345 350 353 349 346 347 347 344 345 345 347 351 354
226 230 242 221 240 235 248 257 258 268 226 171 257 256 254 175 203 184 179 181 182 173 169 170 175 173 162 229 323 328 327 345 352 352 349 347 345 344 343 344 343 348 354 357
214 232 198 216 252 249 238 225 222 233 294 223 266 280 237 221 184 180 189 190 187 180 173 175 176 176 173 254 327 329 341 347 348 343 341 339 337 336 338 343 346 351 353 357
231 242 235 250 244 235 262 220 217 219 147 222 72 278 266 185 137 175 176 186 184 180 179 178 178 177 181 296 329 337 337 331 329 330 332 337 340 343 348 349 348 352 352 358
230 199 196 222 249 220 258 218 216 181 179 108 233 259 285 84 232 194 186 177 180 182 181 179 183 195 206 269 303 317 315 315 322 325 333 341 343 347 349 349 351 352 355 357
239 225 198 216 231 13 353 82 44 41 87 267 191 181 226 191 213 147 161 168 175 177 180 184 192 203 220 239 280 298 305 309 320 328 334 339 343 345 348 351 354 358 356 358
249 250 250 244 280 200 151 90 286 302 266 244 202 209 258 303 291 182 162 162 178 184 187 193 199 207 218 233 264 289 289 298 309 324 335 341 346 350 353 354 356 355 355 358
204 308 214 206 212 202 197 172 188 229 208 249 345 238 254 342 55 150 164 167 170 180 198 201 210 211 219 229 262 270 280 297 317 329 335 341 347 351 355 357 358 357 358 1
213 247 257 193 230 183 189 194 190 129 23 55 225 281 350 102 78 133 143 163 182 194 202 212 211 217 220 235 256 270 278 297 309 333 342 344 350 353 357 1 2 1 1 6
239 276 219 249 114 37 187 155 104 349 155 239 273 253 229 195 175 165 167 184 195 203 209 214 216 219 221 234 252 262 274 286 307 326 334 340 351 0 5 5 6 10 10 9
167 149 269 253 194 181 127 151 79 117 133 168 213 260 222 203 174 182 198 195 203 212 216 217 218 218 224 234 249 256 253 259 279 314 341 357 1 8 9 10 13 14 13 12
210 176 234 233 296 205 195 178 148 140 182 160 162 263 284 192 185 185 204 208 217 223 225 222 220 220 224 231 238 232 225 218 225 329 4 11 6 10 13 19 23 21 18 16
139 256 222 322 335 311 191 195 129 86 76 219 196 258 308 159 179 203 210 235 237 230 227 221 218 217 222 228 234 223 216 218 220 267 5 14 10 2 8 22 24 22 21 19
275 203 225 240 217 164 172 214 144 141 139 245 230 232 195 196 180 203 231 252 242 226 220 220 219 221 222 226 227 214 207 203 210 233 325 359 356 352 358 16 20 19 19 19
139 239 260 294 268 178 186 167 167 176 175 193 234 213 207 223 213 214 215 214 201 212 220 221 222 220 220 222 215 203 203 206 214 221 242 294 322 331 348 4 13 16 14 18
165 227 203 221 207 223 205 190 188 212 213 253 229 244 217 193 167 167 181 180 196 215 228 227 221 222 221 217 210 202 202 200 213 218 237 270 299 311 335 349 3 11 16 19
151 162 153 217 234 295 308 212 199 187 194 194 234 237 150 139 170 180 187 195 207 220 229 228 225 224 218 209 202 204 198 206 213 222 237 259 285 293 303 324 347 2 15 19
222 174 200 179 150 227 231 207 222 239 251 228 244 170 175 184 188 182 188 195 214 227 242 236 222 215 200 195 198 199 205 215 220 232 242 250 259 261 266 294 320 354 11 21
216 202 205 188 202 283 279 206 189 184 243 196 230 179 170 154 147 192 200 210 224 240 250 240 216 204 194 196 199 197 207 213 223 235 239 243 242 230 220 233 263 359 6 17
211 229 215 170 209 220 227 219 240 126 256 227 164 156 144 143 145 243 207 215 230 242 230 211 202 196 194 192 194 203 214 215 224 227 226 221 208 200 200 207 290 358 2 11
184 205 215 184 220 288 239 218 135 159 243 177 169 166 160 175 185 155 188 212 231 231 209 198 198 197 195 194 200 207 214 219 219 208 198 189 182 173 181 201 270 322 341 355
175 151 158 115 199 253 211 215 195 208 222 183 180 177 183 191 191 197 200 218 224 208 196 199 198 197 195 201 206 207 213 213 204 194 187 189 181 171 163 238 261 299 319 331
239 229 188 180 208 217 181 205 213 205 204 174 184 194 198 196 205 202 218 217 215 202 195 197 207 201 199 202 209 207 197 198 193 189 184 184 188 184 180 189 235 271 286 332
290 173 194 126 233 205 209 208 186 174 162 179 183 204 212 220 221 229 225 216 205 199 202 218 206 206 201 198 199 198 192 188 191 189 186 184 191 195 199 208 215 256 283 312
215 7 199 284 263 219 244 235 217 202 195 202 223 218 215 216 234 237 227 219 211 208 209 215 210 207 203 198 198 197 201 198 193 193 196 197 198 208 217 221 234 265 290 324
193 213 161 233 244 186 174 90 205 213 204 192 197 230 228 232 248 243 230 225 213 211 213 211 209 207 207 204 204 206 209 208 203 203 207 211 215 219 225 238 247 257 269 287
Height
1500 1504 1501 1498 1497 1493 1495 1499 1501 1495 1488 1488 1488 1489 1485 1487 1493 1496 1499 1500 1502 1505 1509 1511 1513 1514 1514 1514 1515 1516 1515 1514 1512 1510 1508 1505 1501 1498 1495 1493 1490 1486 1482 1478
1502 1503 1489 1492 1494 1497 1497 1499 1498 1490 1485 1489 1488 1486 1481 1483 1482 1484 1490 1496 1499 1503 1506 1510 1511 1513 1513 1513 1513 1513 1513 1511 1509 1507 1505 1503 1500 1496 1494 1491 1489 1485 1481 1477
1495 1491 1487 1491 1492 1494 1493 1496 1493 1491 1483 1482 1484 1488 1480 1478 1482 1487 1491 1494 1497 1498 1502 1506 1509 1511 1510 1510 1510 1512 1511 1509 1507 1506 1505 1503 1500 1497 1495 1492 1488 1483 1480 1477
1489 1481 1485 1487 1490 1490 1493 1484 1483 1485 1491 1501 1483 1492 1481 1477 1483 1486 1489 1492 1495 1499 1503 1504 1507 1508 1507 1508 1508 1508 1509 1509 1507 1505 1504 1500 1498 1495 1491 1489 1487 1484 1481 1477
1480 1477 1482 1485 1482 1482 1479 1478 1480 1481 1488 1490 1489 1495 1482 1483 1485 1484 1487 1490 1493 1496 1500 1504 1506 1507 1507 1508 1508 1506 1507 1507 1506 1505 1501 1499 1496 1495 1491 1489 1485 1484 1481 1476
1474 1475 1476 1476 1475 1476 1476 1476 1482 1489 1494 1504 1488 1490 1480 1483 1478 1482 1486 1491 1495 1498 1500 1503 1505 1505 1505 1506 1506 1506 1505 1506 1505 1503 1499 1497 1495 1494 1491 1488 1485 1482 1480 1475
1472 1467 1469 1473 1476 1475 1478 1486 1503 1509 1510 1492 1480 1487 1474 1477 1472 1473 1480 1486 1492 1497 1500 1502 1501 1502 1504 1504 1505 1505 1505 1504 1503 1500 1497 1496 1495 1493 1489 1487 1483 1482 1479 1474
1478 1479 1465 1460 1462 1469 1475 1479 1496 1493 1501 1490 1479 1483 1477 1477 1473 1476 1480 1483 1488 1493 1499 1499 1499 1500 1501 1502 1503 1503 1503 1502 1500 1498 1497 1496 1494 1492 1489 1486 1483 1481 1478 1473
1477 1471 1458 1457 1454 1457 1468 1474 1468 1484 1492 1503 1488 1480 1479 1477 1479 1479 1481 1486 1489 1488 1492 1497 1497 1497 1498 1499 1500 1500 1500 1499 1499 1496 1495 1495 1493 1491 1488 1485 1484 1481 1478 1473
1463 1471 1455 1452 1453 1454 1455 1460 1478 1488 1491 1492 1490 1482 1488 1480 1479 1482 1483 1483 1486 1488 1489 1492 1493 1493 1496 1498 1499 1499 1499 1498 1497 1496 1495 1494 1492 1490 1487 1485 1484 1482 1478 1474
1458 1470 1460 1454 1456 1458 1459 1463 1465 1470 1479 1489 1508 1495 1472 1469 1471 1475 1476 1478 1481 1483 1483 1487 1490 1492 1494 1496 1498 1497 1498 1497 1496 1495 1494 1493 1492 1490 1487 1485 1484 1482 1479 1474
1454 1461 1464 1457 1451 1449 1450 1454 1456 1476 1475 1490 1506 1489 1466 1463 1465 1469 1473 1474 1478 1480 1481 1484 1486 1489 1491 1494 1495 1495 1495 1495 1494 1494 1493 1492 1492 1491 1489 1486 1484 1482 1479 1476
1454 1460 1467 1461 1454 1449 1448 1450 1452 1463 1471 1474 1489 1487 1463 1462 1465 1466 1468 1472 1474 1477 1478 1480 1482 1484 1488 1491 1492 1493 1493 1493 1493 1493 1492 1491 1491 1491 1490 1487 1484 1482 1480 1477
1454 1460 1460 1459 1453 1453 1455 1451 1450 1459 1478 1474 1478 1466 1463 1463 1462 1465 1467 1469 1468 1470 1473 1476 1478 1481 1485 1487 1489 1490 1491 1491 1492 1491 1491 1490 1491 1490 1489 1487 1485 1483 1481 1479
1455 1467 1464 1457 1450 1446 1446 1449 1451 1456 1457 1466 1469 1461 1458 1457 1459 1461 1461 1465 1465 1466 1468 1470 1473 1477 1481 1483 1486 1487 1488 1489 1490 1490 1491 1490 1490 1490 1489 1487 1485 1483 1482 1479
1453 1460 1460 1457 1452 1452 1447 1454 1454 1453 1455 1457 1457 1455 1450 1451 1457 1458 1459 1461 1463 1464 1465 1467 1470 1473 1476 1479 1481 1484 1485 1487 1488 1489 1490 1489 1489 1489 1488 1487 1486 1484 1483 1480
1451 1459 1459 1454 1451 1446 1455 1455 1451 1446 1447 1450 1454 1446 1447 1450 1452 1453 1456 1459 1460 1461 1462 1463 1465 1467 1471 1476 1478 1481 1482 1484 1485 1487 1488 1488 1488 1488 1488 1487 1486 1485 1483 1481
1451 1453 1453 1448 1453 1455 1440 1433 1433 1435 1435 1438 1438 1441 1440 1442 1446 1449 1453 1455 1457 1458 1459 1460 1462 1466 1469 1473 1476 1479 1480 1482 1483 1485 1487 1487 1487 1487 1487 1487 1486 1486 1484 1482
1443 1447 1451 1451 1445 1437 1433 1431 1433 1433 1435 1432 1435 1436 1440 1443 1447 1450 1450 1452 1454 1455 1456 1458 1461 1463 1467 1470 1473 1476 1478 1480 1482 1483 1485 1485 1485 1486 1486 1486 1486 1485 1484 1482
1434 1440 1440 1445 1441 1446 1431 1422 1422 1427 1433 1428 1430 1433 1437 1443 1451 1449 1446 1449 1450 1451 1453 1455 1458 1461 1464 1467 1471 1474 1476 1478 1479 1481 1483 1484 1484 1485 1486 1486 1486 1485 1484 1482
1431 1436 1434 1439 1441 1434 1423 1421 1423 1437 1438 1423 1425 1428 1434 1439 1438 1440 1443 1446 1447 1449 1451 1453 1456 1458 1461 1465 1468 1471 1474 1476 1478 1479 1481 1482 1483 1485 1485 1486 1486 1485 1484 1482
1418 1424 1435 1441 1442 1441 1419 1421 1428 1423 1420 1421 1423 1425 1431 1434 1435 1438 1440 1442 1444 1445 1448 1451 1454 1456 1460 1463 1466 1469 1471 1473 1476 1478 1480 1481 1483 1484 1485 1485 1485 1485 1484 1482
1429 1421 1425 1426 1426 1415 1414 1416 1416 1416 1416 1418 1422 1426 1430 1432 1434 1435 1437 1439 1441 1444 1446 1450 1453 1455 1458 1461 1464 1467 1469 1471 1474 1477 1479 1481 1482 1484 1485 1485 1485 1485 1484 1483
1415 1414 1420 1420 1414 1412 1411 1413 1414 1415 1415 1419 1423 1426 1428 1430 1431 1432 1434 1435 1438 1441 1444 1447 1450 1452 1455 1459 1462 1466 1468 1470 1473 1475 1477 1480 1482 1483 1484 1485 1485 1485 1484 1484
1418 1415 1415 1416 1411 1411 1410 1410 1412 1414 1415 1416 1420 1421 1423 1426 1427 1427 1429 1432 1434 1438 1440 1444 1446 1449 1453 1456 1460 1463 1466 1469 1471 1474 1476 1479 1481 1482 1483 1484 1484 1484 1484 1483
1413 1413 1418 1417 1407 1406 1407 1407 1409 1411 1413 1414 1416 1421 1422 1422 1422 1423 1425 1427 1430 1433 1436 1439 1442 1446 1450 1454 1457 1461 1464 1467 1469 1472 1474 1477 1479 1481 1482 1482 1483 1483 1482 1482